Hourly Data Report for October 08, 2005

TORONTO CITY
ONTARIO

43°40'00.000" N
79°24'00.000" W
112.50 m
6158355
71508
XTO

Download Data

Hourly Data (October 2005)
Hourly Data Report for October 8, 2005
TIME
LST
Temp Definition
°C
Dew Point Definition
°C
Rel Hum Definition
%
Precip. Amount Definition
mm

Wind Dir Definition
10's deg

Wind Spd Definition
km/h
Visibility Definition
km
Stn Press Definition
kPa
Hmdx Definition


Wind Chill Definition


Weather Definition


00:00 8.7 1.9 62   LegendMM LegendMM   100.22     LegendNANA
01:00 8.1 2.0 65   LegendMM LegendMM   100.26     LegendNANA
02:00 8.1 1.8 64   LegendMM LegendMM   100.25     LegendNANA
03:00 7.7 1.8 66   LegendMM LegendMM   100.27     LegendNANA
04:00 7.4 1.9 68   LegendMM LegendMM   100.29     LegendNANA
05:00 7.3 1.7 68   LegendMM LegendMM   100.36     LegendNANA
06:00 7.2 1.5 67   LegendMM LegendMM   100.40     LegendNANA
07:00 7.1 1.8 69   LegendMM LegendMM   100.42     LegendNANA
08:00 7.1 1.7 68   LegendMM LegendMM   100.47     LegendNANA
09:00 7.6 1.9 67   LegendMM LegendMM   100.46     LegendNANA
10:00 8.0 1.3 63   LegendMM LegendMM   100.42     LegendNANA
11:00 10.1 2.8 60   LegendMM LegendMM   100.41     LegendNANA
12:00 11.4 2.6 55   LegendMM LegendMM   100.39     LegendNANA
13:00 12.7 2.4 49   LegendMM LegendMM   100.29     LegendNANA
14:00 13.3 2.1 47   LegendMM LegendMM   100.24     LegendNANA
15:00 13.7 2.6 47   LegendMM LegendMM   100.23     LegendNANA
16:00 14.1 3.1 47   LegendMM LegendMM   100.25     LegendNANA
17:00 13.8 2.9 48   LegendMM LegendMM   100.29     LegendNANA
18:00 12.8 2.0 48   LegendMM LegendMM   100.36     LegendNANA
19:00 11.9 2.5 53   LegendMM LegendMM   100.40     LegendNANA
20:00 10.9 2.3 55   LegendMM LegendMM   100.44     LegendNANA
21:00 10.8 2.6 57   LegendMM LegendMM   100.45     LegendNANA
22:00 10.5 2.5 58   LegendMM LegendMM   100.45     LegendNANA
23:00 9.9 2.0 58   LegendMM LegendMM   100.42     LegendNANA

Notes on Data Quality.

Legend

  • E = Estimated
  • M = Missing
  • NA = Not Available*
  • [empty] = Indicates an unobserved value
Date modified: